Location: Unspecified
(0.0000°N, 0.0000°E)
Time: 14:21:37
(UTC+00:00)

STARLINK-34127 - Visible Passes

Search period start: 15 June 2025 00:00
Search period end: 25 June 2025 00:00
Orbit: 443 x 445 km, 43.0° (Epoch: 15 June)

Date Brightness Start Highest point End Pass type
(mag) Time Alt. Az. Time Alt. Az. Time Alt. Az.
21 Jun 5.4 19:56:27 10° WSW 19:57:49 21° WSW 19:57:49 21° WSW visible
22 Jun 3.2 19:15:33 10° SW 19:19:05 77° NW 19:21:59 14° NE visible
23 Jun 3.1 18:34:43 10° SW 18:38:13 66° SE 18:41:42 10° NE visible
24 Jun 6.7 19:34:34 10° NW 19:35:11 10° NW 19:35:48 10° NW visible
